Météo par heure à Aachen

Ce jour, 17 Avril, Samedi

Heure Température Précipitation Vent Pression Humidité
00:00 +4°C° 0 mm 1 m/s 753 mmHg 83%
01:00 +3°C° 0 mm 1 m/s 753 mmHg 84%
02:00 +3°C° 0 mm 1 m/s 753 mmHg 86%
03:00 +1°C° 0 mm 2 m/s 753 mmHg 87%
04:00 +3°C° 0 mm 1 m/s 753 mmHg 86%
05:00 +3°C° 0 mm 1 m/s 753 mmHg 84%
06:00 +3°C° 0 mm 1 m/s 753 mmHg 82%
07:00 +4°C° 0 mm 2 m/s 753 mmHg 75%
08:00 +5°C° 0 mm 3 m/s 753 mmHg 68%
09:00 +7°C° 0 mm 4 m/s 753 mmHg 60%
10:00 +8°C° 0 mm 4 m/s 752 mmHg 57%
11:00 +8°C° 0 mm 4 m/s 752 mmHg 54%
12:00 +10°C° 0 mm 4 m/s 752 mmHg 51%
13:00 +11°C° 0 mm 4 m/s 751 mmHg 50%
14:00 +11°C° 0 mm 4 m/s 751 mmHg 48%
15:00 +11°C° 0 mm 4 m/s 751 mmHg 46%
16:00 +10°C° 0 mm 4 m/s 750 mmHg 54%
17:00 +9°C° 0 mm 3 m/s 750 mmHg 61%
18:00 +8°C° 0 mm 3 m/s 750 mmHg 68%
19:00 +8°C° 0 mm 2 m/s 750 mmHg 70%
20:00 +7°C° 0 mm 2 m/s 751 mmHg 72%
21:00 +7°C° 0 mm 2 m/s 751 mmHg 73%
22:00 +7°C° 0 mm 2 m/s 751 mmHg 74%
23:00 +7°C° 0 mm 1 m/s 751 mmHg 76%

Demain, 18 Avril, Dimanche

Heure Température Précipitation Vent Pression Humidité
00:00 +7°C° 0 mm 1 m/s 750 mmHg 77%
01:00 +7°C° 0 mm 1 m/s 750 mmHg 78%
02:00 +6°C° 0 mm 1 m/s 750 mmHg 79%
03:00 +6°C° 0 mm 1 m/s 750 mmHg 80%
04:00 +6°C° 0 mm 1 m/s 750 mmHg 80%
05:00 +6°C° 0 mm 1 m/s 750 mmHg 80%
06:00 +7°C° 0 mm 1 m/s 750 mmHg 80%
07:00 +8°C° 0 mm 1 m/s 750 mmHg 75%
08:00 +8°C° 0 mm 2 m/s 750 mmHg 71%
09:00 +10°C° 0 mm 2 m/s 750 mmHg 67%
10:00 +10°C° 0.1 mm 2 m/s 750 mmHg 65%
11:00 +11°C° 0.1 mm 3 m/s 750 mmHg 64%
12:00 +12°C° 0.1 mm 3 m/s 750 mmHg 62%
13:00 +12°C° 0.2 mm 3 m/s 749 mmHg 63%
14:00 +12°C° 0.2 mm 3 m/s 749 mmHg 63%
15:00 +12°C° 0.2 mm 3 m/s 749 mmHg 64%
16:00 +11°C° 0.3 mm 3 m/s 749 mmHg 71%
17:00 +10°C° 0.3 mm 2 m/s 749 mmHg 77%
18:00 +9°C° 0.3 mm 2 m/s 749 mmHg 84%
19:00 +8°C° 0.3 mm 2 m/s 749 mmHg 87%
20:00 +9°C° 0.3 mm 1 m/s 749 mmHg 90%
21:00 +8°C° 0.3 mm 1 m/s 749 mmHg 93%
22:00 +8°C° 0.2 mm 1 m/s 749 mmHg 93%
23:00 +8°C° 0.2 mm 1 m/s 749 mmHg 94%

Après-demain, 19 Avril, Lundi

Heure Température Précipitation Vent Pression Humidité
00:00 +8°C° 0.2 mm 1 m/s 749 mmHg 95%
01:00 +7°C° 0 mm 1 m/s 749 mmHg 95%
02:00 +6°C° 0 mm 1 m/s 748 mmHg 96%
03:00 +5°C° 0 mm 0 m/s 748 mmHg 96%
04:00 +5°C° 0 mm 0 m/s 748 mmHg 95%
05:00 +6°C° 0 mm 0 m/s 749 mmHg 95%
06:00 +6°C° 0 mm 0 m/s 749 mmHg 94%
07:00 +9°C° 0 mm 1 m/s 748 mmHg 88%
08:00 +10°C° 0 mm 1 m/s 748 mmHg 83%
09:00 +10°C° 0 mm 2 m/s 748 mmHg 78%
10:00 +12°C° 0.3 mm 2 m/s 748 mmHg 76%
11:00 +12°C° 0.3 mm 2 m/s 748 mmHg 74%
12:00 +13°C° 0.3 mm 2 m/s 748 mmHg 72%
13:00 +13°C° 0.3 mm 2 m/s 747 mmHg 70%
14:00 +13°C° 0.3 mm 2 m/s 747 mmHg 69%
15:00 +14°C° 0.3 mm 2 m/s 747 mmHg 68%
16:00 +13°C° 0.2 mm 2 m/s 746 mmHg 73%
17:00 +12°C° 0.2 mm 2 m/s 746 mmHg 79%
18:00 +10°C° 0.2 mm 2 m/s 746 mmHg 84%
19:00 +10°C° 0 mm 1 m/s 746 mmHg 85%
20:00 +9°C° 0 mm 1 m/s 746 mmHg 87%
21:00 +8°C° 0 mm 1 m/s 746 mmHg 89%
22:00 +8°C° 0 mm 1 m/s 746 mmHg 89%
23:00 +8°C° 0 mm 1 m/s 746 mmHg 89%

20 Avril, Mardi

Heure Température Précipitation Vent Pression Humidité
00:00 +6°C° 0 mm 0 m/s 746 mmHg 89%
01:00 +6°C° 0 mm 0 m/s 746 mmHg 89%
02:00 +6°C° 0 mm 0 m/s 746 mmHg 90%
03:00 +6°C° 0 mm 0 m/s 745 mmHg 90%
04:00 +7°C° 0 mm 0 m/s 745 mmHg 89%
05:00 +7°C° 0 mm 0 m/s 745 mmHg 89%
06:00 +8°C° 0 mm 0 m/s 745 mmHg 88%
07:00 +9°C° 0 mm 0 m/s 745 mmHg 84%
08:00 +11°C° 0 mm 1 m/s 746 mmHg 81%
09:00 +12°C° 0 mm 1 m/s 746 mmHg 77%
10:00 +13°C° 0.2 mm 1 m/s 745 mmHg 71%
11:00 +15°C° 0.2 mm 1 m/s 745 mmHg 64%
12:00 +16°C° 0.2 mm 1 m/s 745 mmHg 58%
13:00 +16°C° 0.3 mm 2 m/s 745 mmHg 59%
14:00 +16°C° 0.3 mm 2 m/s 744 mmHg 60%
15:00 +16°C° 0.3 mm 2 m/s 744 mmHg 62%
16:00 +15°C° 0.4 mm 2 m/s 744 mmHg 68%
17:00 +13°C° 0.4 mm 2 m/s 744 mmHg 74%
18:00 +12°C° 0.4 mm 2 m/s 744 mmHg 81%
19:00 +10°C° 0.3 mm 2 m/s 744 mmHg 85%
20:00 +9°C° 0.3 mm 2 m/s 745 mmHg 89%
21:00 +8°C° 0.3 mm 2 m/s 745 mmHg 93%
22:00 +8°C° 0.1 mm 2 m/s 745 mmHg 94%
23:00 +8°C° 0.1 mm 2 m/s 745 mmHg 96%

21 Avril, Mercredi

Heure Température Précipitation Vent Pression Humidité
00:00 +8°C° 0.1 mm 2 m/s 745 mmHg 97%
01:00 +7°C° 0 mm 2 m/s 745 mmHg 96%
02:00 +7°C° 0 mm 2 m/s 745 mmHg 96%
03:00 +7°C° 0 mm 2 m/s 745 mmHg 96%
04:00 +7°C° 0 mm 2 m/s 745 mmHg 96%
05:00 +6°C° 0 mm 2 m/s 745 mmHg 95%
06:00 +5°C° 0 mm 3 m/s 746 mmHg 95%
07:00 +7°C° 0.1 mm 3 m/s 746 mmHg 92%
08:00 +6°C° 0.1 mm 4 m/s 746 mmHg 90%
09:00 +7°C° 0.1 mm 4 m/s 746 mmHg 88%
10:00 +7°C° 0.2 mm 4 m/s 747 mmHg 84%
11:00 +7°C° 0.2 mm 5 m/s 747 mmHg 80%
12:00 +7°C° 0.2 mm 5 m/s 747 mmHg 76%
13:00 +8°C° 0 mm 5 m/s 747 mmHg 66%
14:00 +9°C° 0 mm 6 m/s 747 mmHg 56%
15:00 +9°C° 0 mm 6 m/s 747 mmHg 46%
16:00 +8°C° 0 mm 6 m/s 747 mmHg 51%
17:00 +7°C° 0 mm 6 m/s 748 mmHg 57%
18:00 +5°C° 0 mm 6 m/s 748 mmHg 62%
19:00 +3°C° 0 mm 5 m/s 749 mmHg 68%
20:00 +3°C° 0 mm 4 m/s 749 mmHg 75%
21:00 +1°C° 0 mm 4 m/s 750 mmHg 81%
22:00 +2°C° 0 mm 3 m/s 750 mmHg 84%
23:00 +1°C° 0 mm 3 m/s 750 mmHg 88%

22 Avril, Jeudi

Heure Température Précipitation Vent Pression Humidité
00:00 0°C° 0 mm 3 m/s 750 mmHg 91%
01:00 0°C° 0 mm 3 m/s 750 mmHg 91%
02:00 0°C° 0 mm 3 m/s 750 mmHg 91%
03:00 -1°C° 0 mm 3 m/s 750 mmHg 91%
04:00 -1°C° 0.1 mm 4 m/s 750 mmHg 90%
05:00 0°C° 0.1 mm 4 m/s 750 mmHg 88%
06:00 +1°C° 0.1 mm 5 m/s 750 mmHg 87%
07:00 +2°C° 0.2 mm 6 m/s 750 mmHg 80%
08:00 +3°C° 0.2 mm 6 m/s 751 mmHg 73%
09:00 +4°C° 0.2 mm 6 m/s 751 mmHg 67%
10:00 +5°C° 0 mm 6 m/s 751 mmHg 60%
11:00 +7°C° 0 mm 6 m/s 751 mmHg 54%
12:00 +8°C° 0 mm 6 m/s 751 mmHg 48%
13:00 +8°C° 0 mm 6 m/s 751 mmHg 48%
14:00 +8°C° 0 mm 6 m/s 751 mmHg 48%
15:00 +8°C° 0 mm 6 m/s 751 mmHg 48%
16:00 +7°C° 0 mm 6 m/s 752 mmHg 54%
17:00 +6°C° 0 mm 5 m/s 752 mmHg 59%
18:00 +5°C° 0 mm 4 m/s 753 mmHg 65%
19:00 +4°C° 0 mm 4 m/s 753 mmHg 73%
20:00 +3°C° 0 mm 3 m/s 753 mmHg 80%
21:00 +2°C° 0 mm 2 m/s 754 mmHg 87%
22:00 +2°C° 0 mm 2 m/s 754 mmHg 89%
23:00 +1°C° 0 mm 2 m/s 754 mmHg 91%
Voir plus

Nous avons besoin de votre consentement

Meteoprog et ses fournisseurs de services peuvent stocker et accéder à des données personnelles telles que des cookies, des identifiants d'appareils ou d'autres technologies similaires sur votre appareil et traiter ces données pour personnaliser le contenu et les publicités, ainsi que pour fournir des fonctionnalités de médias sociaux et analyser le trafic.

  • Stocker et/ou accéder à des informations sur votre appareil

    Des cookies, des identifiants d'appareils ou d'autres informations peuvent être stockés ou accessibles sur votre appareil aux fins indiquées ci-dessus.

  • Annonces et contenus personnalisés, mesure des annonces et des contenus, connaissance de l'audience et développement de produits

    Les annonces et le contenu peuvent être personnalisés en fonction d'un profil. D'autres données peuvent être ajoutées pour mieux personnaliser les annonces et le contenu. Les performances des publicités et du contenu peuvent être mesurées. Il est possible d'obtenir des informations sur le public qui a vu les publicités et le contenu. Ces données peuvent être utilisées pour développer ou améliorer l'expérience de l'utilisateur, les systèmes et les logiciels.

En cliquant sur "J'accepte", vous autorisez l'utilisation de cookies, des identifiants d'appareils, des balises web ou d'autres technologies similaires. Vos paramètres peuvent être modifiés dans le navigateur de votre appareil.

Dans certains cas, des intérêts légitimes peuvent être invoqués plutôt qu'un consentement. Vous pouvez en savoir plus à ce sujet dans notre Politique de confidentialité et de cookies.